GAF27D EDDB-EDDN

Flight info

Callsign GAF27D
Flight time 0h 47m
Altitude 22000
Route KISUC1Q/06R KISUC Z117 ODLUN DCT GALMA M736 TABAT Q244 PIVIR PIVIR1V
Aircraft A400/H-SDE3FGHIRWY/L4T

Departure

Time 2026-05-06 16:56
Airport Berlin Brandenburg Airport (EDDB)

Arrival

Time 2026-05-06 17:43
Airport Nuremberg Airport (EDDN)
Time Latitude Longitude Altitude Speed Heading
2026-05-06 16:47 52.35956 13.50663 164 ft 0 kts 186°
2026-05-06 16:49 52.35939 13.50661 164 ft 6 kts 184°
2026-05-06 16:50 52.35881 13.50647 164 ft 11 kts 189°
2026-05-06 16:50 52.35795 13.50617 164 ft 14 kts 205°
2026-05-06 16:50 52.35737 13.50471 164 ft 17 kts 248°
2026-05-06 16:50 52.35691 13.50284 164 ft 19 kts 249°
2026-05-06 16:51 52.35644 13.50078 164 ft 20 kts 250°
2026-05-06 16:51 52.35593 13.49863 164 ft 21 kts 246°
2026-05-06 16:51 52.35540 13.49641 166 ft 22 kts 250°
2026-05-06 16:51 52.35489 13.49407 164 ft 22 kts 248°
2026-05-06 16:52 52.35438 13.49211 166 ft 17 kts 250°
2026-05-06 16:52 52.35405 13.49059 164 ft 14 kts 250°
2026-05-06 16:52 52.35362 13.48895 164 ft 17 kts 246°
2026-05-06 16:52 52.35315 13.48709 164 ft 19 kts 248°
2026-05-06 16:53 52.35260 13.48512 164 ft 20 kts 224°
2026-05-06 16:53 52.35148 13.48409 164 ft 19 kts 241°
2026-05-06 16:53 52.35094 13.48205 166 ft 20 kts 245°
2026-05-06 16:53 52.35038 13.47987 164 ft 21 kts 251°
2026-05-06 16:54 52.34986 13.47755 164 ft 22 kts 250°
2026-05-06 16:54 52.34941 13.47513 164 ft 22 kts 254°
2026-05-06 16:54 52.34882 13.47280 164 ft 23 kts 248°
2026-05-06 16:54 52.34827 13.47032 164 ft 23 kts 248°
2026-05-06 16:55 52.34768 13.46804 164 ft 19 kts 230°
2026-05-06 16:55 52.34650 13.46821 164 ft 18 kts 158°
2026-05-06 16:55 52.34565 13.46928 164 ft 14 kts 78°
2026-05-06 16:55 52.34600 13.47070 164 ft 14 kts 67°
2026-05-06 16:56 52.34692 13.47431 164 ft 75 kts 69°
2026-05-06 16:56 52.34994 13.48725 170 ft 162 kts 68°
2026-05-06 16:56 52.35442 13.50546 724 ft 180 kts 67°
2026-05-06 16:56 52.35908 13.52526 1424 ft 195 kts 68°
2026-05-06 16:57 52.36362 13.54679 2183 ft 200 kts 70°
2026-05-06 16:57 52.36731 13.56745 2811 ft 170 kts 73°
2026-05-06 16:57 52.37004 13.58453 2968 ft 143 kts 72°
2026-05-06 16:57 52.37234 13.59957 2844 ft 140 kts 74°
2026-05-06 16:58 52.37383 13.61530 3333 ft 133 kts 91°
2026-05-06 16:58 52.37008 13.62781 4164 ft 138 kts 159°
2026-05-06 16:58 52.36021 13.62884 3573 ft 159 kts 199°
2026-05-06 16:58 52.34886 13.62053 2821 ft 195 kts 207°
2026-05-06 16:59 52.33624 13.60987 2161 ft 210 kts 207°
2026-05-06 16:59 52.32310 13.59858 1561 ft 216 kts 208°
2026-05-06 16:59 52.31101 13.58682 1584 ft 192 kts 222°
2026-05-06 16:59 52.30403 13.56917 1353 ft 184 kts 248°
2026-05-06 17:00 52.29900 13.55017 1069 ft 181 kts 248°
2026-05-06 17:00 52.29384 13.53031 843 ft 206 kts 249°
2026-05-06 17:00 52.28801 13.50719 847 ft 232 kts 249°
2026-05-06 17:00 52.28185 13.48209 1007 ft 242 kts 249°
2026-05-06 17:01 52.27569 13.45632 1331 ft 244 kts 250°
2026-05-06 17:01 52.26953 13.42983 1677 ft 257 kts 250°
2026-05-06 17:01 52.26323 13.40217 2000 ft 261 kts 250°
2026-05-06 17:01 52.25684 13.37424 2339 ft 264 kts 250°
2026-05-06 17:02 52.25020 13.34631 2655 ft 266 kts 245°
2026-05-06 17:02 52.24000 13.32162 2991 ft 266 kts 230°
2026-05-06 17:02 52.22994 13.29674 3301 ft 262 kts 252°
2026-05-06 17:02 52.22727 13.26757 3644 ft 259 kts 264°
2026-05-06 17:03 52.22246 13.23946 4011 ft 258 kts 249°
2026-05-06 17:03 52.21633 13.21168 4942 ft 260 kts 250°
2026-05-06 17:03 52.21027 13.18421 6225 ft 254 kts 251°
2026-05-06 17:03 52.20446 13.15698 7367 ft 254 kts 251°
2026-05-06 17:04 52.19878 13.12947 8424 ft 258 kts 251°
2026-05-06 17:04 52.19311 13.10141 9463 ft 263 kts 251°
2026-05-06 17:04 52.18736 13.07264 10334 ft 274 kts 251°
2026-05-06 17:04 52.18128 13.04201 10852 ft 292 kts 251°
2026-05-06 17:05 52.17429 13.01041 11511 ft 301 kts 245°
2026-05-06 17:05 52.16327 12.98123 12256 ft 306 kts 230°
2026-05-06 17:05 52.14787 12.95771 13050 ft 310 kts 219°
2026-05-06 17:05 52.13022 12.93709 13833 ft 315 kts 214°
2026-05-06 17:06 52.11143 12.91846 14593 ft 318 kts 211°
2026-05-06 17:06 52.09202 12.90080 15381 ft 322 kts 210°
2026-05-06 17:06 52.07223 12.88331 16151 ft 325 kts 210°
2026-05-06 17:06 52.05229 12.86566 16903 ft 328 kts 210°
2026-05-06 17:07 52.03220 12.84766 17655 ft 332 kts 210°
2026-05-06 17:07 52.01195 12.82925 18361 ft 335 kts 210°
2026-05-06 17:07 51.99162 12.81059 19032 ft 338 kts 211°
2026-05-06 17:07 51.97105 12.79160 19696 ft 341 kts 211°
2026-05-06 17:08 51.95034 12.77242 20374 ft 344 kts 211°
2026-05-06 17:08 51.92938 12.75302 21048 ft 347 kts 211°
2026-05-06 17:08 51.90834 12.73357 21598 ft 350 kts 211°
2026-05-06 17:08 51.88707 12.71393 21791 ft 353 kts 211°
2026-05-06 17:09 51.86570 12.69424 21800 ft 353 kts 211°
2026-05-06 17:09 51.84455 12.67478 21798 ft 353 kts 211°
2026-05-06 17:09 51.82322 12.65519 21799 ft 353 kts 211°
2026-05-06 17:09 51.80163 12.63538 21796 ft 352 kts 211°
2026-05-06 17:10 51.78058 12.61609 21791 ft 352 kts 210°
2026-05-06 17:10 51.75931 12.59661 21791 ft 352 kts 210°
2026-05-06 17:10 51.73798 12.57711 21791 ft 352 kts 210°
2026-05-06 17:10 51.71667 12.55764 21793 ft 352 kts 210°
2026-05-06 17:11 51.69540 12.53823 21787 ft 352 kts 210°
2026-05-06 17:11 51.67405 12.51876 21785 ft 352 kts 210°
2026-05-06 17:11 51.65279 12.49939 21787 ft 352 kts 210°
2026-05-06 17:11 51.63139 12.47993 21782 ft 352 kts 210°
2026-05-06 17:12 51.61010 12.46057 21769 ft 352 kts 210°
2026-05-06 17:12 51.58865 12.44111 21779 ft 353 kts 210°
2026-05-06 17:12 51.56723 12.42169 21777 ft 354 kts 210°
2026-05-06 17:12 51.54577 12.40224 21776 ft 354 kts 210°
2026-05-06 17:13 51.52427 12.38279 21773 ft 354 kts 210°
2026-05-06 17:13 51.50285 12.36344 21771 ft 354 kts 210°
2026-05-06 17:13 51.48132 12.34400 21772 ft 354 kts 210°
2026-05-06 17:13 51.45981 12.32460 21775 ft 354 kts 210°
2026-05-06 17:14 51.43858 12.30547 21772 ft 354 kts 210°
2026-05-06 17:14 51.41711 12.28615 21776 ft 354 kts 210°
2026-05-06 17:14 51.39563 12.26685 21769 ft 354 kts 210°
2026-05-06 17:14 51.37406 12.24748 21774 ft 356 kts 210°
2026-05-06 17:15 51.35242 12.22807 21774 ft 357 kts 210°
2026-05-06 17:15 51.33075 12.20866 21774 ft 357 kts 210°
2026-05-06 17:15 51.30906 12.18924 21771 ft 357 kts 210°
2026-05-06 17:15 51.28735 12.16983 21771 ft 357 kts 210°
2026-05-06 17:16 51.26567 12.15047 21769 ft 357 kts 210°
2026-05-06 17:16 51.24395 12.13110 21768 ft 357 kts 210°
2026-05-06 17:16 51.22957 12.11828 21768 ft 357 kts 210°
2026-05-06 17:16 51.20783 12.09892 21769 ft 357 kts 210°
2026-05-06 17:17 51.18610 12.07960 21767 ft 357 kts 210°
2026-05-06 17:17 51.16434 12.06026 21761 ft 358 kts 210°
2026-05-06 17:17 51.14254 12.04092 21764 ft 360 kts 210°
2026-05-06 17:17 51.12064 12.02150 21766 ft 360 kts 210°
2026-05-06 17:18 51.09879 12.00215 21763 ft 360 kts 210°
2026-05-06 17:18 51.07686 11.98275 21763 ft 360 kts 210°
2026-05-06 17:18 51.05491 11.96335 21763 ft 360 kts 210°
2026-05-06 17:18 51.03300 11.94402 21763 ft 360 kts 210°
2026-05-06 17:19 51.01108 11.92469 21763 ft 360 kts 209°
2026-05-06 17:19 50.98914 11.90537 21760 ft 360 kts 209°
2026-05-06 17:19 50.96726 11.88611 21751 ft 360 kts 209°
2026-05-06 17:19 50.94531 11.86682 21759 ft 360 kts 209°
2026-05-06 17:20 50.92338 11.84757 21760 ft 360 kts 209°
2026-05-06 17:20 50.90140 11.82830 21765 ft 361 kts 209°
2026-05-06 17:20 50.87965 11.80925 21762 ft 362 kts 209°
2026-05-06 17:20 50.85753 11.78989 21762 ft 363 kts 209°
2026-05-06 17:21 50.83540 11.77055 21758 ft 363 kts 209°
2026-05-06 17:21 50.81322 11.75118 21757 ft 364 kts 209°
2026-05-06 17:21 50.79108 11.73187 21757 ft 364 kts 209°
2026-05-06 17:21 50.76888 11.71253 21758 ft 363 kts 209°
2026-05-06 17:22 50.74675 11.69327 21761 ft 363 kts 209°
2026-05-06 17:22 50.72461 11.67401 21758 ft 363 kts 209°
2026-05-06 17:22 50.70251 11.65483 21759 ft 362 kts 209°
2026-05-06 17:22 50.68040 11.63564 21760 ft 362 kts 209°
2026-05-06 17:23 50.65854 11.61671 21758 ft 362 kts 209°
2026-05-06 17:23 50.63621 11.59738 21757 ft 362 kts 209°
2026-05-06 17:23 50.61410 11.57827 21758 ft 362 kts 209°
2026-05-06 17:23 50.59203 11.55927 21754 ft 362 kts 208°
2026-05-06 17:24 50.56906 11.54439 21762 ft 363 kts 197°
2026-05-06 17:24 50.54420 11.53768 21762 ft 364 kts 184°
2026-05-06 17:24 50.51880 11.53811 21764 ft 366 kts 178°
2026-05-06 17:24 50.49346 11.54150 21764 ft 366 kts 175°
2026-05-06 17:25 50.46810 11.54656 21761 ft 366 kts 174°
2026-05-06 17:25 50.44288 11.55230 21766 ft 367 kts 173°
2026-05-06 17:25 50.41760 11.55818 21767 ft 367 kts 173°
2026-05-06 17:25 50.39230 11.56394 21723 ft 367 kts 174°
2026-05-06 17:26 50.36700 11.56950 21331 ft 367 kts 174°
2026-05-06 17:26 50.34175 11.57487 20833 ft 365 kts 174°
2026-05-06 17:26 50.31673 11.58006 20320 ft 362 kts 174°
2026-05-06 17:26 50.29179 11.58517 19808 ft 360 kts 175°
2026-05-06 17:27 50.26703 11.59020 19319 ft 357 kts 175°
2026-05-06 17:27 50.24251 11.59517 18836 ft 354 kts 175°
2026-05-06 17:27 50.21809 11.60012 18360 ft 352 kts 175°
2026-05-06 17:27 50.19390 11.60502 17858 ft 350 kts 175°
2026-05-06 17:28 50.16985 11.60990 17330 ft 347 kts 175°
2026-05-06 17:28 50.14591 11.61374 16792 ft 344 kts 180°
2026-05-06 17:28 50.12229 11.61106 16233 ft 339 kts 191°
2026-05-06 17:28 50.09953 11.60337 15692 ft 330 kts 195°
2026-05-06 17:29 50.07769 11.59452 15173 ft 318 kts 196°
2026-05-06 17:29 50.05697 11.58571 14672 ft 306 kts 197°
2026-05-06 17:29 50.03679 11.57699 14173 ft 296 kts 198°
2026-05-06 17:29 50.01712 11.56842 13690 ft 291 kts 198°
2026-05-06 17:30 49.99774 11.55994 13173 ft 288 kts 198°
2026-05-06 17:30 49.97845 11.55148 12645 ft 287 kts 198°
2026-05-06 17:30 49.95928 11.54307 12126 ft 286 kts 198°
2026-05-06 17:30 49.94020 11.53471 11613 ft 284 kts 197°
2026-05-06 17:31 49.92122 11.52640 11123 ft 282 kts 197°
2026-05-06 17:31 49.90199 11.52047 10612 ft 282 kts 189°
2026-05-06 17:31 49.88250 11.51760 10137 ft 281 kts 185°
2026-05-06 17:31 49.86298 11.51610 9649 ft 279 kts 184°
2026-05-06 17:32 49.84365 11.51474 9122 ft 278 kts 184°
2026-05-06 17:32 49.82445 11.51340 8740 ft 273 kts 184°
2026-05-06 17:32 49.80577 11.51210 8425 ft 272 kts 184°
2026-05-06 17:32 49.78691 11.51076 8119 ft 271 kts 184°
2026-05-06 17:33 49.76808 11.50936 7837 ft 270 kts 184°
2026-05-06 17:33 49.74939 11.50789 7761 ft 269 kts 184°
2026-05-06 17:33 49.73057 11.50641 7758 ft 270 kts 184°
2026-05-06 17:33 49.71181 11.50494 7756 ft 270 kts 184°
2026-05-06 17:34 49.69293 11.50342 7567 ft 271 kts 184°
2026-05-06 17:34 49.67418 11.50190 7317 ft 270 kts 184°
2026-05-06 17:34 49.65541 11.50032 7070 ft 269 kts 184°
2026-05-06 17:34 49.63666 11.49870 6706 ft 268 kts 184°
2026-05-06 17:35 49.61818 11.49708 6313 ft 265 kts 184°
2026-05-06 17:35 49.59984 11.49540 5909 ft 262 kts 185°
2026-05-06 17:35 49.58183 11.49376 5492 ft 257 kts 184°
2026-05-06 17:36 49.54786 11.49078 4756 ft 235 kts 184°
2026-05-06 17:36 49.53177 11.48945 4385 ft 228 kts 185°
2026-05-06 17:36 49.51627 11.48831 4067 ft 216 kts 184°
2026-05-06 17:36 49.50198 11.48700 3961 ft 198 kts 189°
2026-05-06 17:37 49.49013 11.47822 3969 ft 188 kts 227°
2026-05-06 17:37 49.48379 11.46094 3968 ft 187 kts 250°
2026-05-06 17:37 49.47986 11.44188 3969 ft 187 kts 253°
2026-05-06 17:37 49.47630 11.42276 3964 ft 180 kts 254°
2026-05-06 17:38 49.47305 11.40527 3953 ft 164 kts 254°
2026-05-06 17:38 49.47072 11.38842 3961 ft 160 kts 265°
2026-05-06 17:38 49.47082 11.37144 3969 ft 158 kts 274°
2026-05-06 17:38 49.47194 11.35460 3953 ft 158 kts 276°
2026-05-06 17:39 49.47336 11.33775 3975 ft 159 kts 278°
2026-05-06 17:39 49.47503 11.32110 3991 ft 159 kts 278°
2026-05-06 17:39 49.47660 11.30420 3849 ft 156 kts 277°
2026-05-06 17:39 49.47796 11.28860 3620 ft 140 kts 278°
2026-05-06 17:40 49.47935 11.27419 3424 ft 134 kts 278°
2026-05-06 17:40 49.48076 11.26008 3241 ft 133 kts 279°
2026-05-06 17:40 49.48216 11.24604 3072 ft 132 kts 279°
2026-05-06 17:40 49.48353 11.23213 2878 ft 131 kts 278°
2026-05-06 17:41 49.48490 11.21827 2704 ft 131 kts 278°
2026-05-06 17:41 49.48627 11.20441 2521 ft 131 kts 278°
2026-05-06 17:41 49.48762 11.19059 2347 ft 130 kts 278°
2026-05-06 17:41 49.48898 11.17684 2167 ft 130 kts 279°
2026-05-06 17:42 49.49032 11.16315 1989 ft 129 kts 278°
2026-05-06 17:42 49.49167 11.14946 1797 ft 129 kts 279°
2026-05-06 17:42 49.49300 11.13596 1628 ft 130 kts 279°
2026-05-06 17:42 49.49437 11.12207 1443 ft 133 kts 281°
2026-05-06 17:43 49.49576 11.10794 1272 ft 134 kts 280°
2026-05-06 17:43 49.49728 11.09375 1078 ft 134 kts 281°
2026-05-06 17:43 49.49840 11.08204 1042 ft 82 kts 278°
2026-05-06 17:43 49.49896 11.07599 1035 ft 33 kts 274°
2026-05-06 17:44 49.49904 11.07479 1031 ft 3 kts 277°
2026-05-06 17:44 49.49910 11.07404 1034 ft 11 kts 277°
2026-05-06 17:44 49.49923 11.07254 1033 ft 17 kts 277°
2026-05-06 17:44 49.49929 11.07059 1033 ft 18 kts 248°
2026-05-06 17:45 49.49824 11.07043 1029 ft 7 kts 159°
2026-05-06 17:45 49.49801 11.07057 1030 ft 0 kts 157°
2026-05-06 17:46 49.49795 11.07061 1030 ft 3 kts 156°
2026-05-06 17:46 49.49765 11.07089 1028 ft 7 kts 144°
2026-05-06 17:46 49.49740 11.07162 1027 ft 8 kts 98°
2026-05-06 17:47 49.49733 11.07258 1028 ft 10 kts 96°
2026-05-06 17:47 49.49727 11.07362 1032 ft 10 kts 99°
2026-05-06 17:47 49.49715 11.07470 1032 ft 10 kts 99°
2026-05-06 17:47 49.49703 11.07583 1030 ft 11 kts 99°
2026-05-06 17:48 49.49689 11.07698 1035 ft 11 kts 104°
2026-05-06 17:48 49.49658 11.07801 1037 ft 11 kts 108°
2026-05-06 17:48 49.49642 11.07914 1037 ft 11 kts 98°
2026-05-06 17:48 49.49630 11.08032 1038 ft 11 kts 99°
2026-05-06 17:49 49.49619 11.08151 1039 ft 11 kts 97°
2026-05-06 17:49 49.49608 11.08268 1040 ft 9 kts 98°
2026-05-06 17:49 49.49581 11.08351 1041 ft 9 kts 146°
2026-05-06 17:49 49.49526 11.08361 1039 ft 7 kts 165°
2026-05-06 17:50 49.49502 11.08428 1040 ft 8 kts 101°
2026-05-06 17:50 49.49523 11.08468 1041 ft 4 kts 10°
2026-05-06 17:50 49.49550 11.08465 1042 ft 4 kts
2026-05-06 17:50 49.49560 11.08467 1042 ft 0 kts